Location: Ellerstadt
(49.4644°N, 8.2615°E)
Time: 04:52:08
(UTC+00:00)

Cosmos 1777 Rocket - Pass Details

Date: 03 March 2021
Orbit: 759 x 775 km, 74.0° (Epoch: 11 April)

Event Time Altitude Azimuth Distance (km) Brightness Sun altitude
Rises 18:26:56 0° 339° (NNW) 3,252 7.6 -12.8°
Reaches altitude 10° 18:29:26 10° 346° (NNW) 2,319 6.7 -13.2°
Maximum altitude 18:34:28 45° 59° (ENE) 1,038 4.3 -14.0°
Enters shadow 18:38:03 18° 125° (SE) 1,800 5.4 -14.6°
